ACA5CA CYYC-CYEG

Flight info

Callsign ACA5CA
Flight time 0h 22m
Altitude 20000
Route BITGA Q995 OILRS OILRS2
Aircraft A321/M-SDE3FGHIRWY/LB1

Departure

Time 2026-04-29 00:08
Airport Calgary International Airport (CYYC)

Arrival

Time 2026-04-29 00:30
Airport Edmonton International Airport (CYEG)
Time Latitude Longitude Altitude Speed Heading
2026-04-28 23:53 51.13061 -113.99952 3557 ft 0 kts 168°
2026-04-29 00:00 51.13076 -113.99957 3555 ft 4 kts 168°
2026-04-29 00:01 51.13102 -113.99965 3556 ft 3 kts 170°
2026-04-29 00:01 51.13128 -113.99974 3557 ft 4 kts 160°
2026-04-29 00:01 51.13152 -113.99993 3557 ft 4 kts 134°
2026-04-29 00:01 51.13163 -114.00024 3555 ft 2 kts 91°
2026-04-29 00:02 51.13163 -114.00025 3555 ft 0 kts 90°
2026-04-29 00:03 51.13163 -114.00019 3555 ft 4 kts 90°
2026-04-29 00:04 51.13163 -113.99921 3557 ft 14 kts 89°
2026-04-29 00:04 51.13162 -113.99735 3558 ft 19 kts 91°
2026-04-29 00:04 51.13161 -113.99515 3559 ft 19 kts 92°
2026-04-29 00:04 51.13086 -113.99441 3558 ft 17 kts 179°
2026-04-29 00:05 51.12913 -113.99448 3557 ft 32 kts 180°
2026-04-29 00:05 51.12660 -113.99445 3553 ft 36 kts 179°
2026-04-29 00:05 51.12465 -113.99444 3553 ft 23 kts 180°
2026-04-29 00:05 51.12308 -113.99440 3551 ft 21 kts 179°
2026-04-29 00:06 51.12237 -113.99331 3551 ft 16 kts 92°
2026-04-29 00:06 51.12253 -113.99237 3549 ft 0 kts 62°
2026-04-29 00:06 51.12259 -113.99227 3550 ft 4 kts 44°
2026-04-29 00:07 51.12317 -113.99171 3549 ft 17 kts 31°
2026-04-29 00:07 51.12455 -113.99059 3553 ft 26 kts 15°
2026-04-29 00:07 51.12753 -113.99029 3555 ft 72 kts 359°
2026-04-29 00:07 51.13454 -113.99033 3560 ft 127 kts
2026-04-29 00:08 51.14484 -113.99033 3587 ft 166 kts
2026-04-29 00:08 51.15660 -113.99056 4068 ft 173 kts
2026-04-29 00:08 51.16917 -113.99098 4535 ft 187 kts
2026-04-29 00:08 51.18222 -113.98804 5108 ft 192 kts 18°
2026-04-29 00:09 51.19488 -113.98001 5633 ft 202 kts 22°
2026-04-29 00:09 51.20887 -113.97220 5859 ft 229 kts 17°
2026-04-29 00:09 51.22545 -113.96593 6070 ft 260 kts
2026-04-29 00:09 51.24383 -113.96124 6747 ft 268 kts
2026-04-29 00:10 51.26219 -113.95563 7684 ft 271 kts
2026-04-29 00:10 51.28080 -113.94957 8537 ft 275 kts
2026-04-29 00:10 51.29972 -113.94340 9371 ft 280 kts
2026-04-29 00:10 51.31893 -113.93720 10184 ft 285 kts
2026-04-29 00:11 51.33912 -113.93081 10589 ft 307 kts
2026-04-29 00:11 51.36088 -113.92407 10810 ft 331 kts
2026-04-29 00:11 51.40918 -113.90910 11186 ft 373 kts
2026-04-29 00:12 51.43492 -113.90098 11786 ft 380 kts
2026-04-29 00:12 51.46096 -113.89276 12521 ft 382 kts
2026-04-29 00:12 51.48711 -113.88451 13298 ft 384 kts
2026-04-29 00:12 51.51335 -113.87625 14035 ft 385 kts
2026-04-29 00:13 51.53976 -113.86795 14690 ft 387 kts
2026-04-29 00:13 51.56627 -113.85962 15318 ft 390 kts
2026-04-29 00:13 51.59304 -113.85125 15916 ft 393 kts
2026-04-29 00:13 51.62005 -113.84284 16494 ft 397 kts
2026-04-29 00:14 51.64693 -113.83442 17084 ft 401 kts
2026-04-29 00:14 51.67474 -113.82564 17692 ft 404 kts
2026-04-29 00:14 51.70213 -113.81697 18274 ft 408 kts
2026-04-29 00:14 51.73015 -113.80810 18913 ft 412 kts
2026-04-29 00:15 51.75839 -113.79916 19542 ft 416 kts
2026-04-29 00:15 51.78699 -113.79008 20007 ft 424 kts
2026-04-29 00:15 51.81642 -113.78078 20150 ft 438 kts
2026-04-29 00:15 51.84688 -113.77116 20279 ft 450 kts
2026-04-29 00:16 51.87689 -113.76158 20451 ft 434 kts
2026-04-29 00:16 51.90639 -113.75212 20446 ft 431 kts
2026-04-29 00:16 51.93576 -113.74274 20371 ft 428 kts
2026-04-29 00:16 51.96488 -113.73346 20157 ft 427 kts
2026-04-29 00:17 51.99403 -113.72414 20177 ft 428 kts
2026-04-29 00:17 52.02330 -113.71475 20175 ft 428 kts
2026-04-29 00:17 52.05252 -113.70534 20123 ft 428 kts
2026-04-29 00:17 52.08178 -113.69592 20127 ft 429 kts
2026-04-29 00:18 52.11112 -113.68649 20116 ft 430 kts
2026-04-29 00:18 52.14069 -113.67699 20117 ft 435 kts
2026-04-29 00:18 52.17043 -113.66740 20116 ft 436 kts
2026-04-29 00:18 52.20018 -113.65779 20118 ft 436 kts
2026-04-29 00:19 52.22998 -113.64815 20123 ft 436 kts
2026-04-29 00:19 52.25974 -113.63853 20127 ft 436 kts
2026-04-29 00:19 52.28955 -113.62890 20134 ft 436 kts
2026-04-29 00:19 52.31932 -113.61922 20141 ft 436 kts
2026-04-29 00:20 52.34909 -113.60950 20151 ft 436 kts
2026-04-29 00:20 52.37889 -113.59978 20157 ft 436 kts
2026-04-29 00:20 52.40867 -113.59006 20167 ft 437 kts
2026-04-29 00:20 52.43844 -113.58033 20178 ft 437 kts
2026-04-29 00:21 52.46825 -113.57063 20189 ft 437 kts
2026-04-29 00:21 52.49805 -113.56094 20195 ft 437 kts
2026-04-29 00:21 52.52790 -113.55119 20211 ft 437 kts
2026-04-29 00:21 52.55773 -113.54153 20203 ft 437 kts
2026-04-29 00:22 52.58788 -113.53560 20202 ft 437 kts
2026-04-29 00:22 52.61818 -113.53072 20200 ft 437 kts
2026-04-29 00:22 52.64805 -113.52641 20200 ft 437 kts
2026-04-29 00:22 52.67860 -113.52216 19834 ft 431 kts
2026-04-29 00:23 52.70824 -113.51803 19239 ft 425 kts
2026-04-29 00:23 52.73719 -113.51393 18667 ft 422 kts
2026-04-29 00:23 52.76670 -113.50964 18029 ft 418 kts
2026-04-29 00:23 52.79516 -113.50540 17378 ft 414 kts
2026-04-29 00:24 52.82403 -113.50105 16734 ft 409 kts
2026-04-29 00:24 52.85175 -113.49681 16116 ft 402 kts
2026-04-29 00:24 52.87931 -113.49259 15508 ft 394 kts
2026-04-29 00:24 52.90642 -113.48847 14912 ft 388 kts
2026-04-29 00:25 52.93250 -113.48450 13989 ft 368 kts
2026-04-29 00:25 52.95798 -113.48061 12235 ft 366 kts
2026-04-29 00:25 52.98336 -113.47676 10975 ft 369 kts
2026-04-29 00:25 53.00892 -113.47272 10067 ft 368 kts
2026-04-29 00:26 53.03430 -113.46873 9204 ft 365 kts
2026-04-29 00:26 53.05914 -113.46107 8453 ft 363 kts 13°
2026-04-29 00:26 53.08351 -113.45064 7686 ft 359 kts 12°
2026-04-29 00:26 53.10790 -113.44188 7021 ft 357 kts 10°
2026-04-29 00:27 53.13219 -113.43369 6501 ft 355 kts 11°
2026-04-29 00:27 53.15606 -113.42558 5944 ft 337 kts
2026-04-29 00:27 53.17827 -113.42318 5415 ft 306 kts 354°
2026-04-29 00:27 53.19849 -113.43201 4968 ft 299 kts 338°
2026-04-29 00:28 53.21631 -113.44860 4378 ft 286 kts 325°
2026-04-29 00:28 53.23097 -113.46935 3900 ft 266 kts 316°
2026-04-29 00:28 53.24306 -113.49038 3725 ft 234 kts 315°
2026-04-29 00:28 53.25343 -113.50849 3611 ft 198 kts 316°
2026-04-29 00:29 53.26262 -113.52375 3332 ft 178 kts 318°
2026-04-29 00:29 53.27127 -113.53757 2944 ft 163 kts 327°
2026-04-29 00:29 53.27641 -113.54599 2718 ft 152 kts 315°
2026-04-29 00:29 53.28346 -113.55787 2510 ft 136 kts 318°
2026-04-29 00:30 53.28997 -113.56842 2380 ft 122 kts 315°
2026-04-29 00:30 53.29467 -113.57627 2368 ft 70 kts 316°
2026-04-29 00:30 53.29721 -113.58049 2363 ft 36 kts 315°
2026-04-29 00:30 53.29874 -113.58214 2360 ft 21 kts 353°
2026-04-29 00:31 53.30010 -113.58204 2345 ft 11 kts 358°
2026-04-29 00:31 53.30041 -113.58206 2342 ft 0 kts 359°
2026-04-29 00:31 53.30045 -113.58206 2342 ft 4 kts 359°
2026-04-29 00:31 53.30104 -113.58222 2342 ft 11 kts 338°
2026-04-29 00:32 53.30164 -113.58308 2342 ft 12 kts 329°
2026-04-29 00:32 53.30242 -113.58264 2342 ft 14 kts 40°
2026-04-29 00:32 53.30305 -113.58183 2342 ft 10 kts 335°
2026-04-29 00:32 53.30351 -113.58264 2342 ft 10 kts 311°
2026-04-29 00:33 53.30398 -113.58340 2342 ft 9 kts 318°
2026-04-29 00:33 53.30460 -113.58435 2342 ft 13 kts 329°
2026-04-29 00:33 53.30504 -113.58399 2342 ft 6 kts 50°
2026-04-29 00:33 53.30525 -113.58362 2342 ft 3 kts 43°
2026-04-29 00:34 53.30532 -113.58351 2342 ft 0 kts 44°